Theta_e
329 331 333 340 340 341 340 343 345 346 349 351 351 351 355 357 356 352 354 358 355 355 355 357 365 364 363 363 363 362 363 360 361
323 332 331 337 341 341 341 343 346 347 350 353 352 351 355 354 355 354 354 359 360 356 361 358 362 364 363 362 364 363 364 358 362
323 327 334 334 341 341 342 344 346 348 349 351 353 351 353 351 352 353 354 356 358 358 360 361 361 362 362 363 363 364 364 361 362
321 325 327 334 339 343 342 343 345 346 347 348 349 351 353 353 351 351 353 352 355 358 360 362 362 362 363 362 362 364 364 362 361
317 322 325 327 331 332 340 342 343 345 345 346 348 351 353 351 352 352 351 351 352 356 358 361 362 362 361 361 362 364 362 360 359
316 318 321 323 324 325 326 331 339 343 345 345 346 349 347 350 350 350 351 352 353 353 355 358 360 361 361 360 361 361 362 362 361
316 318 317 319 322 322 322 324 327 332 344 347 348 348 346 348 350 352 351 354 354 353 354 354 356 358 359 360 361 361 361 361 361
313 316 316 317 316 320 323 322 322 326 329 339 349 350 348 349 352 353 353 353 354 355 354 353 356 356 357 358 359 358 361 361 361
308 310 315 317 317 316 318 323 322 323 325 329 341 346 348 351 352 351 351 351 352 352 353 354 354 355 354 354 353 339 340 354 360
307 308 310 312 316 317 317 319 324 323 323 325 329 329 336 349 351 351 351 351 350 351 351 353 353 353 353 355 357 334 335 340 360
306 307 307 309 310 313 318 319 321 325 324 324 323 323 325 328 334 349 352 352 351 351 350 351 353 352 353 355 354 332 331 336 357
304 306 308 309 310 310 313 318 321 323 325 321 322 321 322 325 328 331 336 349 350 351 349 350 350 351 353 353 355 328 328 334 351
303 305 306 308 309 310 310 313 317 320 322 321 320 320 322 325 327 328 331 335 339 346 350 347 347 348 351 343 355 332 324 332 348
303 303 304 306 306 307 309 311 313 317 319 320 322 321 322 323 326 326 330 334 337 339 344 349 351 350 351 352 350 351 322 321 351
301 301 302 303 303 304 306 309 310 312 315 321 323 319 320 322 323 326 330 331 330 333 341 342 343 350 350 351 354 332 325 318 322
301 302 302 303 302 303 305 308 309 309 313 318 321 321 318 319 321 323 327 327 327 330 335 341 342 343 345 348 352 354 322 317 317
301 302 302 303 302 302 303 306 307 308 310 314 318 320 320 317 318 319 320 323 327 330 331 336 339 341 344 346 350 353 355 344 335
302 302 302 303 302 302 302 305 305 307 309 312 315 318 319 319 316 318 318 320 321 324 329 330 334 339 347 347 348 352 341 344 353
302 301 302 302 303 303 303 304 305 307 309 311 313 315 317 317 316 316 317 319 319 315 311 310 308 307 313 338 329 319 314 312 312
301 300 299 300 301 302 304 305 305 307 309 311 313 312 314 316 314 315 314 315 316 318 320 310 308 304 304 303 313 310 306 306 306
Wind_Speed
13 12 15 20 20 21 20 20 19 17 16 16 16 16 15 13 13 9 9 9 6 6 6 6 7 7 6 6 6 5 4 4 3
16 17 9 17 19 19 19 19 20 19 17 16 16 18 13 13 12 12 10 10 8 7 5 5 7 7 7 6 7 6 5 4 4
19 19 13 7 12 15 15 15 16 18 18 17 17 18 15 14 14 13 12 10 10 9 8 6 6 8 7 7 7 7 6 5 5
18 19 18 17 16 4 11 14 15 15 16 17 16 16 15 14 14 14 12 11 11 10 8 8 9 8 8 8 8 9 9 7 6
17 17 17 17 17 17 14 3 11 13 15 16 16 12 11 14 13 13 13 12 12 11 11 9 10 9 8 9 10 9 9 9 8
16 17 18 16 18 16 15 13 12 7 10 14 12 10 10 10 13 13 14 14 12 11 12 12 11 9 9 10 10 11 11 10 10
15 16 16 14 14 14 13 13 12 12 10 5 9 11 12 11 13 14 13 13 13 13 13 12 12 12 11 11 11 11 11 10 10
15 16 18 18 15 13 13 13 12 11 11 10 6 8 11 13 13 13 13 12 13 13 13 13 13 13 13 12 11 10 12 12 11
13 14 15 17 16 15 14 13 12 10 9 9 9 6 10 11 11 12 13 13 14 13 14 14 13 14 14 14 12 12 14 12 11
11 12 14 15 15 15 13 13 12 12 10 8 8 9 11 8 11 12 12 12 13 14 14 14 14 15 15 15 15 12 15 17 12
10 11 13 14 13 14 14 11 14 12 10 8 7 7 8 9 11 10 12 12 13 14 13 13 13 14 15 15 13 14 17 17 16
11 11 11 11 12 15 14 13 13 13 12 10 8 7 6 7 8 9 9 10 13 12 12 13 13 13 14 15 15 15 17 15 16
13 13 12 12 14 14 13 14 14 13 13 11 11 9 9 8 6 7 9 8 8 8 9 11 12 14 14 15 16 14 17 17 13
10 12 14 15 14 12 12 14 14 12 11 12 10 11 10 9 5 6 8 8 7 6 7 9 11 12 12 15 15 15 17 19 15
10 12 14 14 14 14 14 13 13 13 12 11 11 9 13 11 9 5 6 8 7 8 8 11 11 11 12 12 14 17 15 18 22
11 11 11 12 14 17 15 12 11 14 13 14 12 12 8 8 11 8 7 7 8 6 8 11 10 9 9 11 12 12 19 18 21
12 12 13 13 15 16 18 13 14 15 15 15 14 12 12 8 7 11 9 4 6 7 7 8 13 12 11 10 11 13 12 11 12
13 15 16 16 15 15 19 18 17 15 15 14 14 13 11 11 6 7 11 5 3 9 8 8 10 10 11 12 11 14 12 12 11
13 15 17 16 17 18 18 19 19 16 14 13 13 13 11 9 8 8 9 10 5 9 14 19 20 20 17 13 16 12 12 15 15
16 15 17 18 19 19 20 20 19 16 15 14 13 10 11 10 9 9 8 8 5 9 9 18 20 20 19 19 18 12 13 14 12
Wind_Direction
338 303 257 214 208 206 201 203 203 199 195 200 200 202 208 212 213 215 217 205 200 196 198 202 185 190 191 190 173 188 190 213 230
5 346 253 221 214 211 205 201 201 201 202 203 199 202 201 209 216 218 218 215 194 186 204 205 199 193 196 197 197 183 186 220 219
12 18 22 207 214 210 208 206 206 207 208 205 202 205 201 204 213 217 216 216 215 197 189 203 195 201 208 204 204 201 195 204 206
15 27 36 38 24 283 214 198 201 208 213 216 211 210 211 207 206 213 217 214 224 223 204 189 200 204 208 223 216 210 202 208 212
24 29 35 36 41 38 33 345 217 216 223 219 219 214 209 216 215 208 213 216 215 221 224 207 200 204 211 218 227 220 224 213 211
33 33 35 33 33 31 26 27 18 332 234 228 219 206 202 209 218 213 217 220 216 214 226 223 208 202 203 209 216 222 224 229 229
38 36 34 30 30 30 25 16 16 15 360 285 233 222 220 214 215 221 220 221 220 216 215 225 225 217 215 213 210 214 226 226 233
33 35 33 29 21 13 16 14 12 6 8 352 320 251 238 230 229 227 226 221 225 225 222 224 225 227 224 223 217 214 216 222 228
35 27 19 19 18 8 9 5 1 357 353 355 331 320 259 254 242 232 228 226 225 225 226 226 227 227 226 223 228 213 201 214 220
32 21 13 11 6 7 0 355 352 353 351 353 5 11 349 277 251 247 237 232 229 227 226 230 227 230 231 229 225 205 202 205 225
24 7 359 356 355 353 354 354 352 342 348 352 9 13 1 354 357 291 252 242 238 235 232 230 230 231 230 234 233 203 201 200 224
351 342 340 336 340 338 337 343 348 342 345 350 1 8 351 348 338 331 333 280 254 245 242 237 233 235 232 229 237 208 206 195 226
338 333 330 329 330 324 327 334 338 337 333 336 348 345 333 315 344 336 313 309 314 246 229 234 238 240 234 232 238 213 206 199 227
325 324 323 325 318 315 317 319 324 319 324 323 331 329 318 308 336 330 308 305 307 301 295 264 245 243 236 238 233 237 205 199 223
327 325 324 323 316 311 311 310 308 307 307 321 323 321 324 320 322 304 301 313 316 305 270 265 266 255 244 236 237 227 217 203 209
327 325 321 317 312 307 304 306 304 299 305 312 314 308 303 301 303 303 301 312 310 311 281 267 264 257 246 242 238 235 216 207 207
317 319 318 315 307 301 298 300 300 294 296 299 298 296 300 298 308 304 286 293 308 293 267 268 263 259 250 244 243 242 231 211 212
309 314 314 312 301 297 294 294 291 291 290 291 291 292 292 291 285 283 291 269 259 284 270 265 276 280 278 254 243 241 237 228 211
305 312 312 305 298 293 290 288 286 284 283 280 276 279 281 286 292 285 286 285 301 259 259 276 277 268 251 272 262 261 233 219 218
305 306 307 302 299 293 289 283 279 280 276 275 269 260 277 283 286 282 284 280 276 298 293 242 252 262 258 242 252 262 238 234 233